Home > Weather > Firozpur > Past weeks

Flag for India Weather for the Past 2 Weeks in Firozpur, Punjab, India

Now
82 °F

Haze.


Feels Like: 81 °F
Forecast: 73 / 106 °F
Wind: No wind

Location: Lahore Airport

Current Time: Apr 30, 2016 at 2:21:17 AM

Latest Report: Apr 30, 2016 at 1:25 AM


Visibility: 2 mi

Pressure: 29.71 "Hg

Humidity: 37%

Dew Point: 54 °F

Location of FirozpurLocation

Historic Weather in Firozpur — Graph

°F

Firozpur Temperature Yesterday

Maximum temperature yesterday: 104 °F (at 3:25 PM)
Minimum temperature yesterday: 77 °F (at 6:25 AM)
Average temperature yesterday: 92 °F

High & Low Weather Summary for the Past Weeks

 TemperatureHumidityPressure
High104 °F (Apr 16, 12:55 PM)100% (Apr 21, 9:25 PM)30.01 "Hg (Apr 21, 9:25 PM)
Low68 °F (Apr 27, 2:25 AM)11% (Apr 28, 2:25 PM)29.56 "Hg (Apr 17, 2:30 AM)
Average87 °F33%29.71 "Hg
* Reported Apr 15 12:55 AM — Apr 30 12:49 AM, Firozpur, Weather by CustomWeather, © 2016

Note: Actual official high and low records may vary slightly from our data, if they occured in-between our weather recording intervals... More about our weather records

Advertising

Firozpur Weather History for the Previous 24 Hours

Scroll right to see more
 ConditionsComfort  
Time TempWeatherWind HumidityBarometerVisibility
12:49 AM
Sat, Apr 30
84 °FHaze.No wind33%29.71 "Hg2 mi
12:25 AM84 °FHaze.No wind33%29.74 "Hg2 mi
11:55 PM
Fri, Apr 29
86 °FHaze.No wind31%29.74 "Hg2 mi
11:25 PM88 °FHaze.No wind29%29.74 "Hg2 mi
10:55 PM90 °FHaze.No wind24%29.74 "Hg2 mi
10:25 PM90 °FHaze.No wind24%29.71 "Hg2 mi
9:55 PM91 °FHaze.No wind21%29.71 "Hg2 mi
9:30 PM91 °FHaze.No wind21%29.71 "Hg2 mi
8:55 PM95 °FHaze.No wind18%29.71 "Hg3 mi
8:25 PM95 °FHaze.3 mph18%29.71 "Hg3 mi
7:55 PM95 °FClear.3 mph16%29.71 "Hg4 mi
7:25 PM97 °FClear.5 mph16%29.71 "Hg4 mi
6:55 PM99 °FClear.8 mph14%29.68 "Hg4 mi
5:25 PM102 °FSunny.13 mph13%29.68 "Hg10 mi
4:55 PM102 °FSunny.15 mph12%29.68 "Hg10 mi
4:25 PM104 °FSunny.13 mph12%29.68 "Hg10 mi
3:55 PM104 °FSunny.14 mph12%29.68 "Hg10 mi
3:25 PM104 °FSunny.12 mph12%29.71 "Hg10 mi
2:55 PM102 °FSunny.12 mph13%29.71 "Hg10 mi
2:25 PM102 °FSunny.12 mph13%29.74 "Hg10 mi
1:55 PM102 °FSunny.12 mph14%29.74 "Hg10 mi
1:25 PM102 °FSunny.13 mph14%29.74 "Hg10 mi
12:55 PM100 °FSunny.12 mph12%29.77 "Hg10 mi
12:25 PM100 °FSunny.12 mph12%29.77 "Hg10 mi
11:55 AM97 °FSunny.10 mph17%29.77 "Hg10 mi
11:25 AM95 °FClear.12 mph18%29.77 "Hg6 mi
10:55 AM93 °FClear.9 mph21%29.80 "Hg6 mi
10:25 AM93 °FClear.7 mph21%29.80 "Hg5 mi
9:55 AM90 °FClear.9 mph24%29.80 "Hg4 mi
9:25 AM88 °FHaze.8 mph25%29.77 "Hg3 mi
8:25 AM82 °FHaze.8 mph32%29.77 "Hg2 mi
6:25 AM77 °FHaze.5 mph42%29.74 "Hg2 mi
4:55 AM79 °FHaze.No wind37%29.71 "Hg2 mi
4:25 AM79 °FHaze.No wind37%29.71 "Hg2 mi
3:55 AM79 °FHaze.No wind37%29.71 "Hg2 mi
3:25 AM79 °FHaze.3 mph37%29.71 "Hg2 mi
2:55 AM81 °FHaze.No wind32%29.71 "Hg2 mi
2:25 AM81 °FHaze.No wind32%29.71 "Hg2 mi
Weather by CustomWeather, © 2016

See weather overviewHow to use our weather pages